Location: Eagan
(44.8336°N, 93.1671°W)
Time: 10:07:21
(UTC+00:00)

BlueWalker 3 - Pass Details

Date: 05 October 2024
Orbit: 470 x 481 km, 53.2° (Epoch: 11 November)

Event Time Altitude Azimuth Distance (km) Brightness Sun altitude
Exits shadow 09:41:48 13° 127° (SE) 1,460 4.6 -27.7°
Drops below altitude 10° 09:43:25 10° 101° (E) 1,623 5.2 -27.4°
Sets 09:46:34 0° 72° (ENE) 2,510 6.8 -26.9°
